{"data":{"norad_id":53262,"intl_designator":"2022-086W","name":"STARLINK-4085","alt_names":[],"object_type":"PAYLOAD","status":"ACTIVE","operator":null,"country":"US","launch_date":"2022-07-24","launch_site_code":"AFETR","launch_vehicle":null,"mission":null,"orbit_class":"UNKNOWN","rcs_meters":null,"size_class":null,"mass_kg":null,"dimensions":null,"purposes":["comms"],"wikipedia_slug":null,"has_3d_model":false,"image_url":null,"decayed_at":null,"tle_current":{"epoch":"2026-05-25T04:24:39.298752Z","epoch_age_seconds":62206,"freshness":"FRESH","line1":"1 53262U 22086W   26145.18378818 -.00000108  00000+0  11291-4 0  9995","line2":"2 53262  53.2134 210.7262 0001239  84.6539 275.4594 15.08836867212618","mean_motion":15.08836867,"eccentricity":0.0001239,"inclination_deg":53.2134,"raan_deg":210.7262,"arg_perigee_deg":84.6539,"mean_anomaly_deg":275.4594,"bstar":1.1291e-5,"rev_number":21261,"period_min":95.437752847538,"perigee_km":538.8958387416,"apogee_km":540.610091875,"semimajor_km":6917.8899653083,"source":"CELESTRAK","updated_at":"2026-05-25T13:38:17.364161Z"}}}